Weather History for Du Bois, PA

Change the Weather History Date:

Sunday, April 7, 2013

  Actual Average Record
Temperature  
Mean Temperature 56 °F 43 °F  
Max Temperature 68 °F 54 °F 79 °F (1991)
Min Temperature 43 °F 33 °F 8 °F (1982)
Degree Days  
Heating Degree Days 9 22  
Month to date heating degree days 202 160  
Since 1 July heating degree days 5990 6118  
Cooling Degree Days 0 0  
Month to date cooling degree days 0 0  
Year to date cooling degree days 0 0  
Growing Degree Days 5 (Base 50)    
Moisture  
Dew Point 30 °F    
Average Humidity 50    
Maximum Humidity 66    
Minimum Humidity 33    
Precipitation  
Precipitation 0.00 in 0.12 in 0.41 in (1988)
Month to date precipitation T 0.82  
Sea Level Pressure  
Sea Level Pressure 29.93 in    
Wind  
Wind Speed 12 mph (SSW)    
Max Wind Speed 28 mph    
Max Gust Speed 38 mph    
Visibility 10 miles    
Events      
T = Trace of Precipitation, MM = Missing Value Source: NWS Daily Summary

Daily Weather History Graph

Daily Weather History Graph

Search for Another Location

Airport:

Trip Planner

Search our weather history database for the weather conditions in past years. The results will help you decide how hot, cold, wet, or windy it might be!

Date:

Astronomy

Apr. 07, 2013 Rise Set
Actual Time 6:48 AM EDT 7:47 PM EDT
Civil Twilight 6:20 AM EDT 8:15 PM EDT
Nautical Twilight 5:47 AM EDT 8:49 PM EDT
Astronomical Twilight 5:12 AM EDT 9:24 PM EDT
Moon 5:06 AM EDT (4/7) 5:16 PM EDT (4/7)
Length of Visible Light 13h 55m
Length of Day
12h 58m
Waning Crescent, 8% of the Moon is Illuminated
Apr 7
Waning Crescent
Apr 10
New
Apr 18
First Quarter
Apr 25
Full
May 2
Last Quarter

Hourly Weather History & Observations

Time (EDT) Temp. Windchill Dew Point Humidity Pressure Visibility Wind Dir Wind Speed Gust Speed Precip Events Conditions
12:56 AM 44.1 °F 38.1 °F 17.1 °F 34% 30.06 in 10.0 mi SE 11.5 mph - N/A   Mostly Cloudy
1:56 AM 45.0 °F 39.7 °F 17.1 °F 33% 30.03 in 10.0 mi SE 10.4 mph 17.3 mph N/A   Overcast
2:56 AM 45.0 °F 39.3 °F 17.1 °F 33% 30.01 in 10.0 mi SSE 11.5 mph 16.1 mph N/A   Overcast
3:56 AM 44.1 °F 39.5 °F 18.0 °F 35% 29.99 in 10.0 mi SE 8.1 mph 17.3 mph N/A   Clear
4:56 AM 44.1 °F 39.5 °F 19.0 °F 37% 29.98 in 10.0 mi SE 8.1 mph - N/A   Clear
5:56 AM 44.1 °F 39.5 °F 19.9 °F 38% 29.97 in 10.0 mi SE 8.1 mph - N/A   Clear
6:56 AM 45.0 °F 41.2 °F 21.0 °F 39% 29.95 in 10.0 mi SSE 6.9 mph - N/A   Partly Cloudy
7:56 AM 46.9 °F - 23.0 °F 39% 29.94 in 10.0 mi SSE 9.2 mph - N/A   Overcast
8:56 AM 50.0 °F - 24.1 °F 36% 29.93 in 10.0 mi South 8.1 mph 18.4 mph N/A   Clear
9:56 AM 57.0 °F - 28.9 °F 34% 29.90 in 10.0 mi SSW 11.5 mph 27.6 mph N/A   Clear
10:56 AM 61.0 °F - 33.1 °F 35% 29.88 in 10.0 mi SW 18.4 mph 32.2 mph N/A   Mostly Cloudy
11:56 AM 60.1 °F - 34.0 °F 38% 29.88 in 10.0 mi SW 23.0 mph 35.7 mph N/A   Overcast
12:56 PM 61.0 °F - 35.1 °F 38% 29.88 in 10.0 mi SW 19.6 mph 32.2 mph N/A   Mostly Cloudy
1:56 PM 62.1 °F - 36.0 °F 38% 29.88 in 10.0 mi SSW 19.6 mph 32.2 mph N/A   Clear
2:56 PM 64.9 °F - 37.9 °F 37% 29.86 in 10.0 mi SW 24.2 mph 34.5 mph N/A   Clear
3:56 PM 66.9 °F - 37.0 °F 33% 29.86 in 10.0 mi WSW 20.7 mph 28.8 mph N/A   Scattered Clouds
4:56 PM 64.9 °F - 37.0 °F 36% 29.86 in 10.0 mi SW 16.1 mph 25.3 mph N/A   Mostly Cloudy
5:56 PM 66.0 °F - 37.0 °F 34% 29.87 in 10.0 mi WSW 20.7 mph 26.5 mph N/A   Mostly Cloudy
6:56 PM 64.0 °F - 37.0 °F 37% 29.88 in 10.0 mi West 9.2 mph - N/A   Overcast
7:56 PM 63.0 °F - 37.0 °F 38% 29.90 in 10.0 mi WSW 16.1 mph 27.6 mph N/A   Overcast
8:56 PM 57.9 °F - 41.0 °F 53% 29.94 in 10.0 mi NW 8.1 mph - N/A   Partly Cloudy
9:56 PM 54.0 °F - 39.0 °F 57% 29.96 in 10.0 mi West 5.8 mph - N/A   Partly Cloudy
10:56 PM 51.1 °F - 39.9 °F 66% 29.98 in 10.0 mi NNW 3.5 mph - N/A   Clear
11:56 PM 48.9 °F - 37.9 °F 66% 29.99 in 10.0 mi WNW 4.6 mph - N/A   Clear